When you browse on this site, cookies collect data to enhance your experience and personalize the content and advertising you see.
Visit our Privacy Policy to learn more. By continuing to use the site, you agree to this use of cookies and data.
  • In Österreich
  • Länderverzeichnis
  • Für 7 Tage
  • Wassertemperatur
  • Satellitenkarten
  • Wetterkarte
  • News
  • Widgets
  • user-avatar
    Anmelden

    Stündliche Wetter Belmopan

    Heute, 26 Juni, Mittwoch

    Zeit Temperatur Niederschläge Wind Luftdruck Luftfeuchtigkeit
    00:00 +26°C° 0 mm 1 m/S 753 mmHg 97%
    01:00 +26°C° 0 mm 1 m/S 753 mmHg 98%
    02:00 +25°C° 0 mm 1 m/S 752 mmHg 98%
    03:00 +25°C° 0 mm 1 m/S 752 mmHg 98%
    04:00 +26°C° 0.1 mm 1 m/S 752 mmHg 98%
    05:00 +26°C° 0.1 mm 1 m/S 752 mmHg 98%
    06:00 +26°C° 0.1 mm 1 m/S 753 mmHg 98%
    07:00 +28°C° 0.2 mm 1 m/S 753 mmHg 89%
    08:00 +29°C° 0.2 mm 2 m/S 753 mmHg 81%
    09:00 +31°C° 0.2 mm 2 m/S 753 mmHg 73%
    10:00 +33°C° 0.6 mm 3 m/S 753 mmHg 70%
    11:00 +33°C° 0.6 mm 3 m/S 753 mmHg 67%
    12:00 +34°C° 0.6 mm 3 m/S 753 mmHg 64%
    13:00 +34°C° 0.2 mm 3 m/S 752 mmHg 62%
    14:00 +35°C° 0.2 mm 3 m/S 752 mmHg 59%
    15:00 +35°C° 0.2 mm 4 m/S 751 mmHg 57%
    16:00 +33°C° 0 mm 3 m/S 751 mmHg 63%
    17:00 +31°C° 0 mm 3 m/S 752 mmHg 69%
    18:00 +29°C° 0 mm 2 m/S 752 mmHg 74%
    19:00 +28°C° 0.1 mm 2 m/S 752 mmHg 82%
    20:00 +27°C° 0.1 mm 1 m/S 753 mmHg 89%
    21:00 +26°C° 0.1 mm 1 m/S 753 mmHg 96%
    22:00 +26°C° 0.1 mm 1 m/S 753 mmHg 97%
    23:00 +25°C° 0.1 mm 1 m/S 753 mmHg 98%

    Morgen, 27 Juni, Donnerstag

    Zeit Temperatur Niederschläge Wind Luftdruck Luftfeuchtigkeit
    00:00 +25°C° 0.1 mm 1 m/S 753 mmHg 98%
    01:00 +25°C° 0 mm 1 m/S 753 mmHg 98%
    02:00 +23°C° 0 mm 0 m/S 752 mmHg 98%
    03:00 +23°C° 0 mm 0 m/S 752 mmHg 99%
    04:00 +23°C° 0.1 mm 0 m/S 752 mmHg 98%
    05:00 +23°C° 0.1 mm 0 m/S 752 mmHg 98%
    06:00 +23°C° 0.1 mm 0 m/S 753 mmHg 98%
    07:00 +27°C° 0.5 mm 1 m/S 753 mmHg 93%
    08:00 +28°C° 0.5 mm 1 m/S 753 mmHg 87%
    09:00 +29°C° 0.5 mm 2 m/S 754 mmHg 82%
    10:00 +30°C° 0.9 mm 2 m/S 753 mmHg 80%
    11:00 +30°C° 0.9 mm 2 m/S 753 mmHg 78%
    12:00 +31°C° 0.9 mm 2 m/S 753 mmHg 76%
    13:00 +31°C° 0.9 mm 3 m/S 753 mmHg 73%
    14:00 +31°C° 0.9 mm 3 m/S 752 mmHg 70%
    15:00 +33°C° 0.9 mm 3 m/S 752 mmHg 68%
    16:00 +31°C° 0.1 mm 2 m/S 752 mmHg 71%
    17:00 +30°C° 0.1 mm 2 m/S 752 mmHg 75%
    18:00 +29°C° 0.1 mm 2 m/S 752 mmHg 78%
    19:00 +28°C° 0 mm 2 m/S 752 mmHg 84%
    20:00 +27°C° 0 mm 1 m/S 753 mmHg 91%
    21:00 +26°C° 0 mm 1 m/S 753 mmHg 97%
    22:00 +25°C° 0.1 mm 1 m/S 753 mmHg 97%
    23:00 +25°C° 0.1 mm 1 m/S 753 mmHg 98%

    übermorgen, 28 Juni, Freitag

    Zeit Temperatur Niederschläge Wind Luftdruck Luftfeuchtigkeit
    00:00 +23°C° 0.1 mm 0 m/S 753 mmHg 99%
    01:00 +23°C° 0.1 mm 0 m/S 753 mmHg 99%
    02:00 +23°C° 0.1 mm 0 m/S 753 mmHg 99%
    03:00 +23°C° 0.1 mm 0 m/S 752 mmHg 99%
    04:00 +23°C° 0 mm 0 m/S 752 mmHg 99%
    05:00 +23°C° 0 mm 0 m/S 753 mmHg 98%
    06:00 +23°C° 0 mm 0 m/S 753 mmHg 98%
    07:00 +25°C° 0 mm 0 m/S 753 mmHg 87%
    08:00 +30°C° 0 mm 1 m/S 753 mmHg 75%
    09:00 +32°C° 0 mm 2 m/S 754 mmHg 63%
    10:00 +34°C° 0.1 mm 2 m/S 754 mmHg 58%
    11:00 +35°C° 0.1 mm 2 m/S 753 mmHg 52%
    12:00 +36°C° 0.1 mm 3 m/S 753 mmHg 47%
    13:00 +36°C° 0 mm 3 m/S 752 mmHg 47%
    14:00 +36°C° 0 mm 3 m/S 752 mmHg 47%
    15:00 +36°C° 0 mm 3 m/S 751 mmHg 47%
    16:00 +34°C° 0 mm 3 m/S 751 mmHg 56%
    17:00 +32°C° 0 mm 2 m/S 751 mmHg 64%
    18:00 +30°C° 0 mm 2 m/S 751 mmHg 73%
    19:00 +28°C° 0 mm 2 m/S 752 mmHg 81%
    20:00 +27°C° 0 mm 1 m/S 752 mmHg 90%
    21:00 +25°C° 0 mm 1 m/S 753 mmHg 98%
    22:00 +25°C° 0 mm 1 m/S 753 mmHg 98%
    23:00 +23°C° 0 mm 0 m/S 753 mmHg 98%

    29 Juni, Samstag

    Zeit Temperatur Niederschläge Wind Luftdruck Luftfeuchtigkeit
    00:00 +23°C° 0 mm 0 m/S 753 mmHg 99%
    01:00 +22°C° 0.2 mm 0 m/S 753 mmHg 99%
    02:00 +22°C° 0.2 mm 0 m/S 752 mmHg 99%
    03:00 +22°C° 0.2 mm 0 m/S 752 mmHg 99%
    04:00 +22°C° 0.2 mm 0 m/S 752 mmHg 98%
    05:00 +22°C° 0.2 mm 0 m/S 752 mmHg 98%
    06:00 +22°C° 0.2 mm 0 m/S 753 mmHg 97%
    07:00 +24°C° 0 mm 0 m/S 753 mmHg 88%
    08:00 +26°C° 0 mm 0 m/S 754 mmHg 78%
    09:00 +29°C° 0 mm 0 m/S 754 mmHg 69%
    10:00 +31°C° 0.2 mm 1 m/S 754 mmHg 67%
    11:00 +32°C° 0.2 mm 1 m/S 754 mmHg 58%
    12:00 +35°C° 0.2 mm 2 m/S 753 mmHg 50%
    13:00 +34°C° 0.1 mm 2 m/S 753 mmHg 52%
    14:00 +32°C° 0.1 mm 2 m/S 752 mmHg 54%
    15:00 +31°C° 0.1 mm 2 m/S 752 mmHg 57%
    16:00 +31°C° 0 mm 2 m/S 752 mmHg 61%
    17:00 +30°C° 0 mm 1 m/S 752 mmHg 65%
    18:00 +29°C° 0 mm 1 m/S 752 mmHg 69%
    19:00 +28°C° 0 mm 1 m/S 752 mmHg 76%
    20:00 +27°C° 0 mm 1 m/S 753 mmHg 83%
    21:00 +25°C° 0 mm 1 m/S 754 mmHg 91%
    22:00 +25°C° 0 mm 1 m/S 753 mmHg 92%
    23:00 +23°C° 0 mm 0 m/S 753 mmHg 94%

    30 Juni, Sonntag

    Zeit Temperatur Niederschläge Wind Luftdruck Luftfeuchtigkeit
    00:00 +23°C° 0 mm 0 m/S 753 mmHg 95%
    01:00 +23°C° 0.2 mm 0 m/S 753 mmHg 95%
    02:00 +23°C° 0.2 mm 0 m/S 753 mmHg 95%
    03:00 +23°C° 0.2 mm 0 m/S 752 mmHg 94%
    04:00 +23°C° 0.1 mm 0 m/S 753 mmHg 95%
    05:00 +23°C° 0.1 mm 0 m/S 753 mmHg 95%
    06:00 +22°C° 0.1 mm 0 m/S 753 mmHg 95%
    07:00 +24°C° 0.1 mm 0 m/S 753 mmHg 88%
    08:00 +28°C° 0.1 mm 1 m/S 754 mmHg 81%
    09:00 +30°C° 0.1 mm 1 m/S 754 mmHg 74%
    10:00 +29°C° 1.2 mm 1 m/S 754 mmHg 79%
    11:00 +29°C° 1.2 mm 1 m/S 753 mmHg 84%
    12:00 +29°C° 1.2 mm 2 m/S 753 mmHg 90%
    13:00 +29°C° 2 mm 2 m/S 753 mmHg 91%
    14:00 +28°C° 2 mm 2 m/S 752 mmHg 93%
    15:00 +27°C° 2 mm 2 m/S 752 mmHg 94%
    16:00 +27°C° 0.7 mm 2 m/S 752 mmHg 94%
    17:00 +27°C° 0.7 mm 2 m/S 752 mmHg 94%
    18:00 +26°C° 0.7 mm 1 m/S 752 mmHg 95%
    19:00 +26°C° 0.2 mm 1 m/S 752 mmHg 96%
    20:00 +26°C° 0.2 mm 1 m/S 753 mmHg 97%
    21:00 +25°C° 0.2 mm 1 m/S 753 mmHg 98%
    22:00 +26°C° 0.1 mm 1 m/S 753 mmHg 98%
    23:00 +26°C° 0.1 mm 1 m/S 753 mmHg 98%

    1 Juli, Montag

    Zeit Temperatur Niederschläge Wind Luftdruck Luftfeuchtigkeit
    00:00 +26°C° 0.1 mm 1 m/S 753 mmHg 99%
    01:00 +26°C° 0.7 mm 1 m/S 753 mmHg 99%
    02:00 +26°C° 0.7 mm 1 m/S 752 mmHg 99%
    03:00 +26°C° 0.7 mm 1 m/S 752 mmHg 98%
    04:00 +26°C° 1.3 mm 1 m/S 752 mmHg 98%
    05:00 +26°C° 1.3 mm 1 m/S 752 mmHg 98%
    06:00 +26°C° 1.3 mm 1 m/S 753 mmHg 98%
    07:00 +26°C° 0.4 mm 1 m/S 753 mmHg 97%
    08:00 +27°C° 0.4 mm 1 m/S 754 mmHg 95%
    09:00 +27°C° 0.4 mm 1 m/S 754 mmHg 94%
    10:00 +29°C° 0.2 mm 2 m/S 754 mmHg 84%
    11:00 +31°C° 0.2 mm 3 m/S 754 mmHg 74%
    12:00 +34°C° 0.2 mm 3 m/S 754 mmHg 65%
    13:00 +33°C° 0.2 mm 3 m/S 753 mmHg 65%
    14:00 +33°C° 0.2 mm 3 m/S 753 mmHg 65%
    15:00 +33°C° 0.2 mm 3 m/S 752 mmHg 65%
    16:00 +31°C° 0.1 mm 3 m/S 752 mmHg 70%
    17:00 +30°C° 0.1 mm 2 m/S 752 mmHg 76%
    18:00 +29°C° 0.1 mm 2 m/S 752 mmHg 81%
    19:00 +28°C° 0.1 mm 2 m/S 753 mmHg 87%
    20:00 +27°C° 0.1 mm 1 m/S 753 mmHg 92%
    21:00 +26°C° 0.1 mm 1 m/S 753 mmHg 98%
    22:00 +26°C° 0.1 mm 1 m/S 753 mmHg 98%
    23:00 +26°C° 0.1 mm 1 m/S 753 mmHg 98%
    Mehr zeigen